User: anonymous
Location: Dover
(39.1580°N, 75.5250°W)
Time: 07:43:45
(UTC-04:00)
Language:

Cosmos 1437 Rocket - Orbit

View from above orbital plane
View from above orbital plane
View from above satellite
View from above satellite

Ground track
Ground track

The orbit data is extracted from the following two-line orbital elements,

1 13771U 83003B   14113.13254750  .00004631  00000-0  31313-3 0   113
2 13771 081.1573 247.3937 0031249 209.9412 150.0026 15.05971163700264
Epoch (UTC): 23 April 2014 03:10:52
Eccentricity: 0.0031249
inclination: 81.1573°
perigee height: 527 km
apogee height: 570 km
right ascension of ascending node: 247.3937°
argument of perigee: 209.9412°
revolutions per day: 15.05971163
mean anomaly at epoch: 150.0026°
orbit number at epoch: 70026

The dashed part of the orbit path shows where the satellite is in the earth's shadow,  

DLR